STARLINK-1848, 46740

Orbit data source: Space-Track

STARLINK-1848, 46740 is a payload satellite owned by SpaceX/Seattle (US) in LEO that was launched on Sat, 24 Oct 2020 UTC via an FALCON 9 launch vehicle from the Air Force Eastern Test Range (AFETR). Payload-class satellites include a variety of spacecraft equipped with specific instruments for various scientific and technological missions. These include communications satellites like Starlink; space stations such as the ISS; scientific satellites like the Hubble; Earth observation satellites from companies like Planet Labs, Umbra, and HawkEye 360; GPS; miniature CubeSats for education and research; and military/defense satellites.

Loading next visibility...
Identifier
46740, 2020-074B
Orbit
LEO
Country
Flag of USUS
Related business
Manufacturer
SpaceX/Seattle
Mission
Partially operational Commercial Communications
Bus & Motor
STARLINK, Unknown motor
Mass
260 kg wet, ~248 kg dry
Launch date (UTC)
2020-10-24 (5 years ago)
Launch vehicle
FALCON 9
Launch site
Air Force Eastern Test Range (AFETR)
Object type
Payload
Rocket body
Debris
Shape & HBR
Box + 1 Pan, 10.1 m
Radar Cross Section
13.562 m², Large (>1 m²)

Expand to show TLE details & history
Last TLE update: 3 hours ago

TLE from 3 hours ago
0 STARLINK-1848
1 46740U 20074B   25310.33335648  .00181830  00000-0  33959-2 0  9992
2 46740  53.0483 141.8480 0012057 123.3389 101.6680 15.47554093  5905
Epoch: 2025-11-06T08:00Z
TLE epoch observation values (Epoch: 2025-11-06T08:00:01.999Z)
Latitude
-34.71476°
Longitude
-172.73777°
Altitude
436.547 km
Speed
7.649 km/s
True Right ascension
23h 32m 15s
True Declination
-34° 32' 47"
Sunlit
Object was in full shadow at epoch
Visualization orbit readout
Latitude
Unknown
Longitude
Unknown
Altitude
Unknown
Speed
Unknown
Apparent Right ascension
Unknown
Apparent Declination
Unknown
Sunlit
N/A
Visualization observer readout
Local Sidereal Time
07:16:06
Azimuth
Unknown
Elevation
Unknown
Doppler factor
Unknown
Orbital elements
Apogee altitude
432.362 km
Perigee altitude
415.959 km
Semi-major axis
6,802.297 km
Eccentricity
0.00121
Inclination
53.0483°
RAAN
141.848°
Arg. of periapsis
123.3389°
True anomaly
101.80327°
Mean anomaly
101.668°
Eccentric anomaly
101.73564°
Mean motion
3.86865 °/min
Orbital period
93.06 mins
BSTAR
0.0033959
Loading maneuver chart data...
Computing Atmospheric mass density...

Documentation

Showing up to 5 results
|